| time (UTC) | temp C | wind direction | speed KPH | gust KPH | rain 1hr cm | rain 24hr cm | rain mn cm | humidity % | barometer mb |
| 20260906103111 | 19 | 360 | 8.0 | 22.5 | 0.00 | 0.23 | 0.00 | 58 | 1027.2 |
| 20260906102557 | 18 | 360 | 9.7 | 22.5 | 0.00 | 0.23 | 0.00 | 57 | 1027.2 |
| 20260906102057 | 18 | 360 | 11.3 | 22.5 | 0.00 | 0.23 | 0.00 | 56 | 1027.2 |
| 20260906101603 | 18 | 360 | 8.0 | 20.9 | 0.00 | 0.23 | 0.00 | 59 | 1027.1 |
| 20260906101059 | 18 | 360 | 9.7 | 20.9 | 0.00 | 0.23 | 0.00 | 57 | 1027.0 |
| 20260906100558 | 18 | 360 | 6.4 | 16.1 | 0.00 | 0.23 | 0.00 | 58 | 1027.0 |
| 20260906100111 | 18 | 360 | 8.0 | 16.1 | 0.00 | 0.23 | 0.00 | 60 | 1027.0 |
| 20260906095601 | 17 | 360 | 4.8 | 17.7 | 0.00 | 0.23 | 0.00 | 60 | 1027.0 |
| 20260906095057 | 17 | 360 | 8.0 | 17.7 | 0.00 | 0.23 | 0.00 | 60 | 1027.1 |
| 20260906094621 | 17 | 360 | 4.8 | 17.7 | 0.00 | 0.23 | 0.00 | 62 | 1027.3 |
| 20260906094056 | 17 | 360 | 4.8 | 16.1 | 0.00 | 0.23 | 0.00 | 63 | 1027.2 |
| 20260906093559 | 17 | 360 | 6.4 | 16.1 | 0.00 | 0.23 | 0.00 | 63 | 1027.3 |
| 20260906093107 | 17 | 360 | 6.4 | 16.1 | 0.00 | 0.23 | 0.00 | 62 | 1027.4 |
| 20260906092559 | 17 | 360 | 8.0 | 16.1 | 0.00 | 0.23 | 0.00 | 62 | 1027.4 |
| 20260906092056 | 17 | 360 | 4.8 | 16.1 | 0.00 | 0.23 | 0.00 | 64 | 1027.3 |
| 20260906091604 | 17 | 360 | 6.4 | 16.1 | 0.00 | 0.23 | 0.00 | 64 | 1027.3 |
| 20260906091102 | 17 | 360 | 6.4 | 16.1 | 0.00 | 0.23 | 0.00 | 65 | 1027.3 |
| 20260906090556 | 17 | 360 | 4.8 | 16.1 | 0.00 | 0.23 | 0.00 | 65 | 1027.2 |
| 20260906090115 | 17 | 360 | 8.0 | 16.1 | 0.00 | 0.23 | 0.00 | 65 | 1027.2 |
| 20260906085559 | 17 | 360 | 3.2 | 14.5 | 0.00 | 0.23 | 0.00 | 66 | 1027.2 |
| 20260906085100 | 17 | 279 | 6.4 | 16.1 | 0.00 | 0.23 | 0.00 | 67 | 1027.3 |
| 20260906084605 | 16 | 360 | 6.4 | 16.1 | 0.00 | 0.23 | 0.00 | 66 | 1027.3 |
| 20260906084056 | 16 | 360 | 6.4 | 16.1 | 0.00 | 0.23 | 0.00 | 66 | 1027.3 |
| 20260906083556 | 16 | 360 | 3.2 | 12.9 | 0.00 | 0.23 | 0.00 | 68 | 1027.2 |
| 20260906083105 | 16 | 360 | 6.4 | 14.5 | 0.00 | 0.23 | 0.00 | 68 | 1027.2 |
| 20260906082556 | 16 | 360 | 6.4 | 14.5 | 0.00 | 0.23 | 0.00 | 69 | 1027.3 |
| 20260906082056 | 15 | 360 | 1.6 | 14.5 | 0.00 | 0.23 | 0.00 | 68 | 1027.2 |
| 20260906081603 | 15 | 360 | 4.8 | 14.5 | 0.00 | 0.23 | 0.00 | 69 | 1027.2 |
| 20260906081058 | 16 | 360 | 4.8 | 12.9 | 0.00 | 0.23 | 0.00 | 68 | 1027.1 |
| 20260906080556 | 15 | 360 | 6.4 | 12.9 | 0.00 | 0.23 | 0.00 | 71 | 1027.1 |
| 20260906080104 | 15 | 360 | 4.8 | 9.7 | 0.00 | 0.23 | 0.00 | 72 | 1027.1 |
| 20260906075556 | 15 | 360 | 3.2 | 9.7 | 0.00 | 0.23 | 0.00 | 73 | 1027.1 |
| 20260906075056 | 15 | 360 | 4.8 | 9.7 | 0.00 | 0.23 | 0.00 | 73 | 1027.0 |
| 20260906074600 | 15 | 360 | 1.6 | 12.9 | 0.00 | 0.23 | 0.00 | 74 | 1027.0 |
| 20260906074056 | 15 | 360 | 4.8 | 14.5 | 0.00 | 0.23 | 0.00 | 74 | 1027.0 |
| 20260906073601 | 14 | 360 | 8.0 | 16.1 | 0.00 | 0.23 | 0.00 | 75 | 1027.0 |
| 20260906073104 | 14 | 360 | 8.0 | 16.1 | 0.00 | 0.23 | 0.00 | 75 | 1027.1 |
| 20260906072557 | 14 | 360 | 4.8 | 14.5 | 0.00 | 0.23 | 0.00 | 77 | 1027.1 |
| 20260906072056 | 13 | 360 | 8.0 | 14.5 | 0.00 | 0.23 | 0.00 | 77 | 1027.1 |
| 20260906071602 | 13 | 360 | 6.4 | 16.1 | 0.00 | 0.23 | 0.00 | 77 | 1027.1 |
| 20260906071056 | 13 | 360 | 6.4 | 16.1 | 0.00 | 0.23 | 0.00 | 78 | 1027.0 |
| 20260906070557 | 13 | 360 | 9.7 | 19.3 | 0.00 | 0.23 | 0.00 | 78 | 1026.8 |
| 20260906070104 | 13 | 360 | 6.4 | 19.3 | 0.00 | 0.23 | 0.00 | 78 | 1026.8 |
| 20260906065600 | 13 | 360 | 9.7 | 19.3 | 0.00 | 0.23 | 0.00 | 79 | 1026.8 |
| 20260906065056 | 13 | 360 | 8.0 | 16.1 | 0.00 | 0.23 | 0.00 | 79 | 1026.8 |
| 20260906064559 | 12 | 360 | 6.4 | 16.1 | 0.00 | 0.23 | 0.00 | 80 | 1026.8 |
| 20260906064058 | 12 | 360 | 6.4 | 17.7 | 0.00 | 0.23 | 0.00 | 80 | 1026.8 |
| 20260906063556 | 12 | 360 | 6.4 | 17.7 | 0.00 | 0.23 | 0.00 | 80 | 1026.7 |
| 20260906063103 | 12 | 360 | 9.7 | 17.7 | 0.00 | 0.23 | 0.00 | 81 | 1026.7 |
| 20260906062556 | 12 | 360 | 9.7 | 16.1 | 0.00 | 0.23 | 0.00 | 82 | 1026.7 |
| 20260906062057 | 12 | 360 | 4.8 | 14.5 | 0.00 | 0.23 | 0.00 | 83 | 1026.5 |
| 20260906061607 | 11 | 360 | 4.8 | 14.5 | 0.00 | 0.23 | 0.00 | 83 | 1026.4 |
| 20260906061056 | 11 | 360 | 4.8 | 14.5 | 0.00 | 0.23 | 0.00 | 84 | 1026.2 |
| 20260906060556 | 11 | 360 | 8.0 | 12.9 | 0.00 | 0.23 | 0.00 | 84 | 1026.3 |
| 20260906060107 | 11 | 360 | 4.8 | 9.7 | 0.00 | 0.23 | 0.00 | 85 | 1026.3 |
| 20260906055556 | 11 | 360 | 4.8 | 12.9 | 0.00 | 0.23 | 0.00 | 86 | 1026.2 |
| 20260906055056 | 11 | 360 | 4.8 | 12.9 | 0.00 | 0.23 | 0.00 | 87 | 1026.1 |
| 20260906054559 | 10 | 360 | 3.2 | 12.9 | 0.00 | 0.23 | 0.00 | 87 | 1026.2 |
| 20260906054058 | 10 | 360 | 4.8 | 12.9 | 0.00 | 0.23 | 0.00 | 88 | 1026.2 |
| 20260906053556 | 10 | 360 | 4.8 | 9.7 | 0.00 | 0.23 | 0.00 | 88 | 1026.3 |
| 20260906053058 | 10 | 360 | 3.2 | 9.7 | 0.00 | 0.23 | 0.00 | 89 | 1026.1 |
| 20260906052559 | 10 | 360 | 1.6 | 6.4 | 0.00 | 0.23 | 0.00 | 89 | 1026.1 |
| 20260906052059 | 10 | 360 | 3.2 | 8.0 | 0.00 | 0.23 | 0.00 | 89 | 1025.9 |
| 20260906051603 | 10 | 360 | 3.2 | 8.0 | 0.00 | 0.23 | 0.00 | 89 | 1025.8 |
| 20260906051058 | 10 | 360 | 4.8 | 9.7 | 0.00 | 0.23 | 0.00 | 89 | 1025.8 |
| 20260906050558 | 10 | 360 | 3.2 | 12.9 | 0.00 | 0.23 | 0.00 | 89 | 1025.8 |
| 20260906050105 | 10 | 360 | 4.8 | 12.9 | 0.00 | 0.23 | 0.00 | 90 | 1025.7 |
| 20260906045558 | 10 | 360 | 4.8 | 12.9 | 0.00 | 0.23 | 0.00 | 89 | 1025.7 |
| 20260906045058 | 10 | 360 | 4.8 | 9.7 | 0.00 | 0.23 | 0.00 | 90 | 1025.7 |
| 20260906044559 | 10 | 360 | 3.2 | 9.7 | 0.00 | 0.23 | 0.00 | 89 | 1025.7 |
| 20260906044058 | 10 | 360 | 3.2 | 9.7 | 0.00 | 0.23 | 0.00 | 89 | 1025.5 |
| 20260906043557 | 10 | 360 | 4.8 | 14.5 | 0.00 | 0.23 | 0.00 | 89 | 1025.5 |
| 20260906043102 | 10 | 360 | 4.8 | 14.5 | 0.00 | 0.23 | 0.00 | 89 | 1025.5 |
| 20260906042557 | 10 | 360 | 4.8 | 12.9 | 0.00 | 0.23 | 0.00 | 89 | 1025.5 |
| 20260906042057 | 10 | 360 | 8.0 | 12.9 | 0.00 | 0.23 | 0.00 | 89 | 1025.5 |
| 20260906041605 | 10 | 360 | 4.8 | 12.9 | 0.00 | 0.23 | 0.00 | 89 | 1025.4 |
| 20260906041058 | 10 | 360 | 4.8 | 12.9 | 0.00 | 0.23 | 0.00 | 89 | 1025.3 |
| 20260906040558 | 10 | 360 | 4.8 | 12.9 | 0.00 | 0.23 | 0.00 | 89 | 1025.2 |
| 20260906040104 | 10 | 360 | 4.8 | 12.9 | 0.00 | 0.23 | 0.00 | 89 | 1025.3 |
| 20260906035558 | 10 | 360 | 4.8 | 12.9 | 0.00 | 0.23 | 0.00 | 88 | 1025.2 |
| 20260906035058 | 10 | 360 | 4.8 | 12.9 | 0.00 | 0.23 | 0.00 | 88 | 1025.3 |
| 20260906034608 | 10 | 360 | 4.8 | 14.5 | 0.00 | 0.23 | 0.00 | 88 | 1025.4 |
| 20260906034057 | 10 | 360 | 6.4 | 14.5 | 0.00 | 0.23 | 0.00 | 88 | 1025.4 |
| 20260906033600 | 10 | 360 | 6.4 | 14.5 | 0.00 | 0.23 | 0.00 | 88 | 1025.5 |
| 20260906033108 | 10 | 360 | 4.8 | 14.5 | 0.00 | 0.23 | 0.00 | 88 | 1025.6 |
| 20260906032558 | 10 | 360 | 3.2 | 14.5 | 0.00 | 0.23 | 0.00 | 88 | 1025.6 |
| 20260906032057 | 10 | 360 | 4.8 | 14.5 | 0.00 | 0.23 | 0.00 | 88 | 1025.6 |
| 20260906031603 | 10 | 360 | 6.4 | 17.7 | 0.00 | 0.23 | 0.00 | 88 | 1025.5 |
| 20260906031058 | 10 | 360 | 8.0 | 17.7 | 0.00 | 0.23 | 0.00 | 88 | 1025.5 |
| 20260906030558 | 10 | 360 | 8.0 | 17.7 | 0.00 | 0.23 | 0.00 | 88 | 1025.4 |
| 20260906030109 | 10 | 360 | 6.4 | 17.7 | 0.00 | 0.23 | 0.00 | 88 | 1025.3 |
| 20260906025558 | 10 | 360 | 6.4 | 14.5 | 0.00 | 0.23 | 0.00 | 88 | 1025.3 |
| 20260906025058 | 10 | 360 | 6.4 | 17.7 | 0.00 | 0.23 | 0.00 | 88 | 1025.2 |
| 20260906024608 | 10 | 360 | 6.4 | 17.7 | 0.00 | 0.23 | 0.00 | 87 | 1025.2 |
| 20260906024057 | 10 | 360 | 4.8 | 14.5 | 0.00 | 0.23 | 0.00 | 87 | 1025.1 |
| 20260906023557 | 10 | 360 | 6.4 | 16.1 | 0.00 | 0.23 | 0.00 | 87 | 1025.1 |
| 20260906023106 | 10 | 360 | 6.4 | 16.1 | 0.00 | 0.23 | 0.00 | 87 | 1025.1 |
| 20260906022557 | 10 | 360 | 8.0 | 16.1 | 0.00 | 0.23 | 0.00 | 87 | 1025.0 |
| 20260906022058 | 11 | 360 | 6.4 | 14.5 | 0.00 | 0.23 | 0.00 | 87 | 1025.0 |
| 20260906021607 | 11 | 360 | 4.8 | 14.5 | 0.00 | 0.23 | 0.00 | 87 | 1025.1 |
| 20260906021059 | 11 | 360 | 6.4 | 14.5 | 0.00 | 0.23 | 0.00 | 86 | 1025.1 |
| 20260906020557 | 11 | 360 | 6.4 | 14.5 | 0.00 | 0.23 | 0.00 | 86 | 1025.0 |
| 20260906020108 | 11 | 360 | 8.0 | 14.5 | 0.00 | 0.23 | 0.00 | 87 | 1024.9 |
| 20260906015557 | 11 | 360 | 6.4 | 14.5 | 0.00 | 0.23 | 0.00 | 86 | 1025.0 |
| 20260906015057 | 11 | 360 | 6.4 | 14.5 | 0.00 | 0.23 | 0.00 | 86 | 1024.9 |
| 20260906014611 | 11 | 360 | 6.4 | 14.5 | 0.00 | 0.23 | 0.00 | 86 | 1024.9 |
| 20260906014059 | 11 | 360 | 6.4 | 12.9 | 0.00 | 0.23 | 0.00 | 86 | 1024.9 |
| 20260906013558 | 11 | 360 | 6.4 | 12.9 | 0.00 | 0.23 | 0.00 | 86 | 1024.8 |
| 20260906013100 | 11 | 360 | 4.8 | 12.9 | 0.00 | 0.23 | 0.00 | 85 | 1024.8 |
| 20260906012557 | 11 | 360 | 6.4 | 14.5 | 0.00 | 0.23 | 0.00 | 85 | 1024.7 |
| 20260906012059 | 11 | 360 | 6.4 | 14.5 | 0.00 | 0.23 | 0.00 | 85 | 1024.7 |
| 20260906011613 | 11 | 360 | 6.4 | 16.1 | 0.00 | 0.23 | 0.00 | 85 | 1024.5 |
| 20260906011058 | 11 | 360 | 6.4 | 16.1 | 0.00 | 0.23 | 0.00 | 85 | 1024.6 |
| 20260906010557 | 11 | 360 | 6.4 | 16.1 | 0.00 | 0.23 | 0.00 | 84 | 1024.6 |
| 20260906010108 | 11 | 360 | 6.4 | 16.1 | 0.00 | 0.23 | 0.00 | 84 | 1024.5 |
| 20260906005558 | 11 | 360 | 4.8 | 14.5 | 0.00 | 0.23 | 0.00 | 84 | 1024.6 |
| 20260906005058 | 11 | 360 | 4.8 | 19.3 | 0.00 | 0.23 | 0.00 | 84 | 1024.6 |
| 20260906004605 | 11 | 360 | 6.4 | 19.3 | 0.00 | 0.23 | 0.00 | 84 | 1024.5 |
| 20260906004058 | 11 | 360 | 4.8 | 14.5 | 0.00 | 0.23 | 0.00 | 83 | 1024.5 |
| 20260906003556 | 11 | 360 | 4.8 | 19.3 | 0.00 | 0.23 | 0.00 | 83 | 1024.5 |
| 20260906003113 | 11 | 360 | 6.4 | 19.3 | 0.00 | 0.23 | 0.00 | 83 | 1024.4 |
| 20260906002557 | 11 | 360 | 6.4 | 14.5 | 0.00 | 0.23 | 0.00 | 83 | 1024.4 |
| 20260906002101 | 11 | 360 | 4.8 | 17.7 | 0.00 | 0.23 | 0.00 | 83 | 1024.3 |
| 20260906001602 | 12 | 360 | 4.8 | 17.7 | 0.00 | 0.23 | 0.00 | 82 | 1024.3 |
| 20260906001101 | 12 | 360 | 6.4 | 16.1 | 0.00 | 0.23 | 0.00 | 82 | 1024.3 |
| 20260906000557 | 12 | 360 | 8.0 | 17.7 | 0.00 | 0.23 | 0.00 | 82 | 1024.3 |
| 20260906000108 | 12 | 360 | 6.4 | 19.3 | 0.00 | 0.23 | 0.00 | 82 | 1024.2 |
| 20260905235557 | 12 | 360 | 6.4 | 19.3 | 0.00 | 0.23 | 0.00 | 82 | 1024.2 |
| 20260905235059 | 12 | 360 | 9.7 | 19.3 | 0.00 | 0.23 | 0.00 | 82 | 1024.2 |
| 20260905234606 | 12 | 360 | 6.4 | 17.7 | 0.00 | 0.23 | 0.00 | 82 | 1024.2 |
| 20260905234058 | 12 | 360 | 8.0 | 16.1 | 0.00 | 0.23 | 0.00 | 82 | 1024.2 |
| 20260905233558 | 12 | 360 | 8.0 | 16.1 | 0.00 | 0.23 | 0.00 | 81 | 1024.1 |
| 20260905233125 | 12 | 360 | 8.0 | 17.7 | 0.00 | 0.23 | 0.00 | 81 | 1024.1 |
| 20260905232558 | 12 | 360 | 9.7 | 17.7 | 0.00 | 0.23 | 0.00 | 81 | 1024.1 |
| 20260905232058 | 12 | 360 | 8.0 | 19.3 | 0.00 | 0.23 | 0.00 | 81 | 1024.0 |
| 20260905231607 | 12 | 248 | 8.0 | 20.9 | 0.00 | 0.23 | 0.00 | 81 | 1024.0 |
| 20260905231057 | 12 | 268 | 9.7 | 20.9 | 0.00 | 0.23 | 0.00 | 81 | 1023.9 |
| 20260905230601 | 12 | 275 | 9.7 | 17.7 | 0.00 | 0.23 | 0.00 | 80 | 1023.9 |
| 20260905230109 | 12 | 257 | 6.4 | 16.1 | 0.00 | 0.23 | 0.00 | 80 | 1023.8 |
| 20260905225556 | 12 | 277 | 9.7 | 20.9 | 0.00 | 0.23 | 0.00 | 80 | 1023.7 |
| 20260905225058 | 12 | 271 | 11.3 | 20.9 | 0.00 | 0.23 | 0.00 | 80 | 1023.7 |
| 20260905224615 | 12 | 262 | 9.7 | 19.3 | 0.00 | 0.23 | 0.00 | 80 | 1023.7 |
| 20260905224058 | 13 | 250 | 9.7 | 22.5 | 0.00 | 0.23 | 0.00 | 79 | 1023.8 |
| 20260905223558 | 13 | 267 | 9.7 | 22.5 | 0.00 | 0.23 | 0.00 | 79 | 1023.7 |
| 20260905223108 | 13 | 268 | 8.0 | 20.9 | 0.00 | 0.23 | 0.00 | 79 | 1023.6 |
| 20260905222601 | 13 | 265 | 9.7 | 17.7 | 0.00 | 0.23 | 0.00 | 79 | 1023.7 |
| 20260905222057 | 13 | 275 | 8.0 | 16.1 | 0.00 | 0.23 | 0.00 | 79 | 1023.6 |
| 20260905221607 | 13 | 278 | 8.0 | 17.7 | 0.00 | 0.23 | 0.00 | 79 | 1023.5 |
| 20260905221058 | 13 | 288 | 8.0 | 17.7 | 0.00 | 0.23 | 0.00 | 79 | 1023.5 |
| 20260905220557 | 13 | 272 | 9.7 | 17.7 | 0.00 | 0.23 | 0.00 | 79 | 1023.5 |
| 20260905220105 | 13 | 252 | 6.4 | 17.7 | 0.00 | 0.23 | 0.00 | 79 | 1023.6 |
| 20260905215558 | 13 | 273 | 8.0 | 17.7 | 0.00 | 0.23 | 0.23 | 79 | 1023.5 |
| 20260905215058 | 13 | 268 | 8.0 | 19.3 | 0.00 | 0.23 | 0.23 | 78 | 1023.5 |
| 20260905214605 | 13 | 273 | 9.7 | 19.3 | 0.00 | 0.23 | 0.23 | 78 | 1023.4 |
| 20260905214057 | 13 | 270 | 8.0 | 16.1 | 0.00 | 0.23 | 0.23 | 78 | 1023.3 |
| 20260905213558 | 13 | 252 | 8.0 | 17.7 | 0.00 | 0.23 | 0.23 | 77 | 1023.3 |
| 20260905213106 | 13 | 360 | 6.4 | 20.9 | 0.00 | 0.23 | 0.23 | 77 | 1023.2 |
| 20260905212557 | 13 | 245 | 11.3 | 20.9 | 0.00 | 0.23 | 0.23 | 77 | 1023.2 |
| 20260905212058 | 13 | 287 | 9.7 | 17.7 | 0.00 | 0.23 | 0.23 | 77 | 1023.1 |
| 20260905211604 | 13 | 264 | 8.0 | 17.7 | 0.00 | 0.23 | 0.23 | 77 | 1023.1 |
| 20260905211057 | 13 | 360 | 9.7 | 19.3 | 0.00 | 0.23 | 0.23 | 77 | 1023.0 |
| 20260905210556 | 13 | 360 | 8.0 | 20.9 | 0.00 | 0.23 | 0.23 | 77 | 1022.9 |
| 20260905205558 | 13 | 360 | 11.3 | 19.3 | 0.00 | 0.23 | 0.23 | 77 | 1022.9 |
| 20260905205058 | 13 | 262 | 8.0 | 19.3 | 0.00 | 0.23 | 0.23 | 77 | 1022.8 |
| 20260905204606 | 13 | 276 | 9.7 | 19.3 | 0.00 | 0.23 | 0.23 | 77 | 1022.7 |
| 20260905204057 | 14 | 252 | 9.7 | 20.9 | 0.00 | 0.23 | 0.23 | 77 | 1022.7 |
| 20260905203559 | 14 | 360 | 8.0 | 20.9 | 0.00 | 0.23 | 0.23 | 77 | 1022.6 |
| 20260905203106 | 14 | 360 | 9.7 | 20.9 | 0.00 | 0.23 | 0.23 | 76 | 1022.7 |
| 20260905202600 | 14 | 279 | 6.4 | 22.5 | 0.00 | 0.23 | 0.23 | 76 | 1022.6 |
| 20260905202100 | 14 | 288 | 9.7 | 22.5 | 0.00 | 0.23 | 0.23 | 75 | 1022.5 |
| 20260905201613 | 14 | 257 | 9.7 | 20.9 | 0.00 | 0.23 | 0.23 | 75 | 1022.6 |
| 20260905201058 | 14 | 259 | 11.3 | 20.9 | 0.00 | 0.23 | 0.23 | 75 | 1022.5 |
| 20260905200557 | 14 | 281 | 9.7 | 20.9 | 0.00 | 0.23 | 0.23 | 75 | 1022.5 |
| 20260905200104 | 14 | 259 | 11.3 | 20.9 | 0.00 | 0.23 | 0.23 | 75 | 1022.6 |
| 20260905195556 | 15 | 263 | 12.9 | 19.3 | 0.00 | 0.23 | 0.23 | 75 | 1022.5 |
| 20260905195057 | 15 | 270 | 11.3 | 19.3 | 0.00 | 0.23 | 0.23 | 76 | 1022.4 |
| 20260905194607 | 15 | 360 | 8.0 | 19.3 | 0.00 | 0.23 | 0.23 | 75 | 1022.4 |
| 20260905194100 | 15 | 360 | 11.3 | 22.5 | 0.00 | 0.23 | 0.23 | 75 | 1022.4 |
| 20260905193559 | 15 | 360 | 9.7 | 22.5 | 0.00 | 0.23 | 0.23 | 75 | 1022.3 |
| 20260905193104 | 15 | 360 | 12.9 | 22.5 | 0.00 | 0.23 | 0.23 | 75 | 1022.2 |
| 20260905192558 | 15 | 360 | 8.0 | 19.3 | 0.00 | 0.23 | 0.23 | 75 | 1022.1 |
| 20260905192057 | 15 | 360 | 9.7 | 19.3 | 0.00 | 0.23 | 0.23 | 74 | 1022.1 |
| 20260905191610 | 15 | 360 | 11.3 | 20.9 | 0.00 | 0.23 | 0.23 | 74 | 1022.0 |
| 20260905191057 | 15 | 360 | 9.7 | 22.5 | 0.00 | 0.23 | 0.23 | 74 | 1021.9 |
| 20260905190556 | 15 | 360 | 9.7 | 22.5 | 0.00 | 0.23 | 0.23 | 74 | 1021.8 |
| 20260905190132 | 15 | 360 | 11.3 | 20.9 | 0.00 | 0.23 | 0.23 | 74 | 1021.8 |
| 20260905185556 | 15 | 360 | 11.3 | 20.9 | 0.00 | 0.23 | 0.23 | 74 | 1021.8 |
| 20260905185058 | 15 | 360 | 11.3 | 20.9 | 0.00 | 0.23 | 0.23 | 75 | 1021.8 |
| 20260905184620 | 15 | 360 | 11.3 | 20.9 | 0.00 | 0.23 | 0.23 | 74 | 1021.7 |
| 20260905184101 | 15 | 360 | 8.0 | 22.5 | 0.00 | 0.23 | 0.23 | 74 | 1021.6 |
| 20260905183559 | 15 | 360 | 11.3 | 22.5 | 0.00 | 0.23 | 0.23 | 74 | 1021.5 |
| 20260905183109 | 15 | 360 | 9.7 | 17.7 | 0.00 | 0.23 | 0.23 | 74 | 1021.4 |
| 20260905182557 | 15 | 360 | 8.0 | 22.5 | 0.00 | 0.23 | 0.23 | 73 | 1021.4 |
| 20260905182058 | 16 | 360 | 8.0 | 22.5 | 0.00 | 0.23 | 0.23 | 72 | 1021.2 |
| 20260905181603 | 16 | 360 | 9.7 | 24.1 | 0.00 | 0.23 | 0.23 | 71 | 1021.0 |
| 20260905181057 | 16 | 360 | 14.5 | 24.1 | 0.00 | 0.23 | 0.23 | 71 | 1020.9 |
| 20260905180557 | 16 | 360 | 9.7 | 25.7 | 0.00 | 0.23 | 0.23 | 71 | 1020.9 |
| 20260905180100 | 16 | 360 | 9.7 | 25.7 | 0.00 | 0.23 | 0.23 | 71 | 1020.9 |
| 20260905175557 | 16 | 360 | 11.3 | 25.7 | 0.00 | 0.33 | 0.23 | 71 | 1020.8 |
| 20260905175057 | 16 | 360 | 11.3 | 22.5 | 0.00 | 0.33 | 0.23 | 71 | 1020.8 |
| 20260905174603 | 16 | 360 | 11.3 | 22.5 | 0.00 | 0.33 | 0.23 | 71 | 1020.7 |
| 20260905174057 | 16 | 360 | 9.7 | 25.7 | 0.00 | 0.33 | 0.23 | 72 | 1020.7 |
| 20260905173601 | 16 | 360 | 11.3 | 25.7 | 0.00 | 0.33 | 0.23 | 72 | 1020.6 |
| 20260905173109 | 16 | 360 | 9.7 | 22.5 | 0.00 | 0.33 | 0.23 | 73 | 1020.6 |
| 20260905172559 | 16 | 360 | 8.0 | 17.7 | 0.00 | 0.33 | 0.23 | 74 | 1020.5 |
| 20260905172100 | 16 | 360 | 6.4 | 16.1 | 0.00 | 0.33 | 0.23 | 74 | 1020.5 |
| 20260905171603 | 16 | 360 | 4.8 | 20.9 | 0.00 | 0.33 | 0.23 | 74 | 1020.4 |
| 20260905171057 | 16 | 360 | 6.4 | 20.9 | 0.00 | 0.33 | 0.23 | 74 | 1020.4 |
| 20260905170557 | 16 | 360 | 11.3 | 20.9 | 0.00 | 0.33 | 0.23 | 75 | 1020.3 |
| 20260905170113 | 16 | 360 | 8.0 | 22.5 | 0.00 | 0.33 | 0.23 | 76 | 1020.1 |
| 20260905165557 | 16 | 360 | 9.7 | 22.5 | 0.00 | 0.81 | 0.23 | 75 | 1020.1 |
| 20260905165059 | 16 | 360 | 9.7 | 22.5 | 0.00 | 0.81 | 0.23 | 76 | 1020.0 |
| 20260905164559 | 16 | 360 | 8.0 | 29.0 | 0.00 | 0.81 | 0.23 | 76 | 1020.0 |
| 20260905164057 | 16 | 360 | 11.3 | 29.0 | 0.00 | 0.81 | 0.23 | 76 | 1020.0 |
| 20260905163557 | 16 | 360 | 11.3 | 24.1 | 0.00 | 0.81 | 0.23 | 76 | 1019.9 |
| 20260905163105 | 16 | 360 | 11.3 | 24.1 | 0.00 | 0.81 | 0.23 | 77 | 1019.8 |
| 20260905162558 | 16 | 360 | 9.7 | 27.4 | 0.00 | 0.81 | 0.23 | 79 | 1019.8 |
| 20260905162058 | 16 | 360 | 11.3 | 32.2 | 0.00 | 0.81 | 0.23 | 80 | 1019.7 |
| 20260905161604 | 16 | 360 | 9.7 | 32.2 | 0.00 | 0.81 | 0.23 | 80 | 1019.6 |
| 20260905161057 | 16 | 360 | 16.1 | 32.2 | 0.00 | 0.81 | 0.23 | 79 | 1019.5 |
| 20260905160556 | 16 | 360 | 14.5 | 32.2 | 0.00 | 0.81 | 0.23 | 78 | 1019.6 |
| 20260905160100 | 17 | 360 | 16.1 | 32.2 | 0.00 | 0.79 | 0.20 | 75 | 1019.5 |
| 20260905155556 | 17 | 360 | 9.7 | 25.7 | 0.00 | 1.09 | 0.20 | 74 | 1019.4 |
| 20260905155056 | 17 | 360 | 9.7 | 27.4 | 0.00 | 1.09 | 0.20 | 73 | 1019.3 |
| 20260905154558 | 17 | 360 | 12.9 | 27.4 | 0.00 | 1.09 | 0.20 | 72 | 1019.3 |
| 20260905154058 | 17 | 360 | 12.9 | 27.4 | 0.00 | 1.09 | 0.20 | 72 | 1019.2 |
| 20260905153558 | 17 | 295 | 9.7 | 22.5 | 0.00 | 1.09 | 0.20 | 74 | 1019.1 |
| 20260905153104 | 18 | 360 | 11.3 | 24.1 | 0.00 | 1.09 | 0.20 | 72 | 1019.1 |
| 20260905152556 | 18 | 360 | 11.3 | 24.1 | 0.00 | 1.09 | 0.20 | 72 | 1019.1 |
| 20260905152057 | 17 | 360 | 14.5 | 22.5 | 0.00 | 1.09 | 0.20 | 74 | 1019.0 |
| 20260905151603 | 17 | 360 | 8.0 | 25.7 | 0.00 | 1.09 | 0.20 | 75 | 1019.0 |
| 20260905151057 | 17 | 360 | 11.3 | 27.4 | 0.00 | 1.09 | 0.20 | 75 | 1018.8 |
| 20260905150556 | 17 | 360 | 16.1 | 33.8 | 0.00 | 1.09 | 0.20 | 74 | 1018.8 |
| 20260905150058 | 17 | 360 | 16.1 | 33.8 | 0.00 | 1.09 | 0.20 | 74 | 1018.8 |
| 20260905145557 | 17 | 360 | 17.7 | 35.4 | 0.00 | 1.24 | 0.20 | 73 | 1018.7 |
| 20260905145056 | 17 | 360 | 19.3 | 35.4 | 0.00 | 1.24 | 0.20 | 72 | 1018.7 |
| 20260905144602 | 17 | 277 | 16.1 | 40.2 | 0.00 | 1.24 | 0.20 | 71 | 1018.6 |
| 20260905144057 | 17 | 269 | 19.3 | 41.8 | 0.00 | 1.24 | 0.20 | 71 | 1018.6 |
| 20260905143556 | 17 | 277 | 20.9 | 41.8 | 0.00 | 1.24 | 0.20 | 70 | 1018.4 |
| 20260905143103 | 18 | 234 | 17.7 | 38.6 | 0.00 | 1.24 | 0.20 | 71 | 1018.4 |
| 20260905142600 | 18 | 360 | 19.3 | 46.7 | 0.00 | 1.24 | 0.20 | 70 | 1018.3 |
| 20260905142057 | 18 | 360 | 17.7 | 46.7 | 0.00 | 1.24 | 0.20 | 71 | 1018.1 |
| 20260905141629 | 18 | 360 | 24.1 | 46.7 | 0.00 | 1.24 | 0.20 | 70 | 1018.1 |
| 20260905141059 | 18 | 263 | 22.5 | 35.4 | 0.00 | 1.24 | 0.20 | 72 | 1018.1 |
| 20260905140600 | 18 | 250 | 16.1 | 33.8 | 0.00 | 1.24 | 0.20 | 74 | 1018.1 |
| 20260905140058 | 18 | 281 | 19.3 | 40.2 | 0.00 | 1.24 | 0.20 | 73 | 1018.2 |
| 20260905135558 | 18 | 360 | 22.5 | 40.2 | 0.00 | 1.60 | 0.20 | 74 | 1018.1 |
| 20260905135056 | 18 | 360 | 14.5 | 43.5 | 0.00 | 1.60 | 0.20 | 77 | 1018.2 |
| 20260905134603 | 17 | 360 | 22.5 | 43.5 | 0.05 | 1.60 | 0.20 | 76 | 1018.2 |
| 20260905134056 | 17 | 360 | 24.1 | 40.2 | 0.08 | 1.60 | 0.20 | 77 | 1018.2 |
| 20260905133557 | 17 | 360 | 19.3 | 40.2 | 0.18 | 1.60 | 0.20 | 78 | 1018.2 |
| 20260905133059 | 17 | 360 | 16.1 | 35.4 | 0.18 | 1.60 | 0.20 | 80 | 1018.3 |
| 20260905132557 | 17 | 360 | 20.9 | 35.4 | 0.18 | 1.60 | 0.20 | 82 | 1018.2 |
| 20260905132057 | 16 | 360 | 16.1 | 35.4 | 0.20 | 1.60 | 0.20 | 83 | 1018.1 |
| 20260905131632 | 16 | 360 | 17.7 | 33.8 | 0.20 | 1.60 | 0.20 | 85 | 1018.1 |
| 20260905131058 | 16 | 360 | 16.1 | 30.6 | 0.20 | 1.60 | 0.20 | 86 | 1018.1 |
| 20260905130558 | 15 | 360 | 12.9 | 24.1 | 0.20 | 1.60 | 0.20 | 87 | 1018.1 |
| 20260905130108 | 15 | 360 | 12.9 | 24.1 | 0.20 | 1.60 | 0.20 | 88 | 1018.2 |
| 20260905125556 | 15 | 360 | 11.3 | 33.8 | 0.20 | 1.60 | 0.20 | 89 | 1018.1 |
| 20260905125056 | 15 | 360 | 11.3 | 33.8 | 0.20 | 1.60 | 0.20 | 89 | 1018.1 |
| 20260905124607 | 15 | 360 | 14.5 | 33.8 | 0.15 | 1.55 | 0.15 | 86 | 1018.3 |
| 20260905124056 | 15 | 360 | 8.0 | 22.5 | 0.13 | 1.52 | 0.13 | 86 | 1018.1 |
| 20260905123556 | 16 | 360 | 8.0 | 24.1 | 0.03 | 1.42 | 0.03 | 81 | 1018.0 |
| 20260905123111 | 16 | 360 | 14.5 | 27.4 | 0.03 | 1.42 | 0.03 | 79 | 1017.7 |
| 20260905122557 | 16 | 360 | 12.9 | 27.4 | 0.00 | 1.40 | 0.00 | 77 | 1017.7 |
| 20260905122056 | 17 | 360 | 8.0 | 32.2 | 0.00 | 1.40 | 0.00 | 74 | 1017.5 |
| 20260905121558 | 17 | 360 | 17.7 | 32.2 | 0.00 | 1.40 | 0.00 | 71 | 1017.5 |
| 20260905121057 | 18 | 360 | 19.3 | 32.2 | 0.00 | 1.40 | 0.00 | 68 | 1017.3 |
| 20260905120557 | 18 | 360 | 17.7 | 30.6 | 0.00 | 1.40 | 0.00 | 68 | 1017.2 |
| 20260905120107 | 18 | 360 | 16.1 | 30.6 | 0.00 | 1.40 | 0.00 | 67 | 1017.2 |
| 20260905115556 | 19 | 258 | 16.1 | 32.2 | 0.00 | 1.40 | 0.00 | 67 | 1017.2 |
| 20260905115056 | 18 | 360 | 14.5 | 32.2 | 0.00 | 1.40 | 0.00 | 69 | 1017.2 |
| 20260905114606 | 18 | 360 | 16.1 | 32.2 | 0.00 | 1.40 | 0.00 | 71 | 1017.3 |
| 20260905114057 | 18 | 288 | 14.5 | 25.7 | 0.00 | 1.40 | 0.00 | 73 | 1017.3 |
| 20260905113558 | 17 | 233 | 12.9 | 27.4 | 0.00 | 1.40 | 0.00 | 74 | 1017.4 |
| 20260905113110 | 18 | 259 | 14.5 | 32.2 | 0.00 | 1.40 | 0.00 | 71 | 1017.4 |
| 20260905112557 | 18 | 256 | 19.3 | 32.2 | 0.00 | 1.40 | 0.00 | 70 | 1017.1 |
| 20260905112056 | 18 | 298 | 17.7 | 32.2 | 0.00 | 1.40 | 0.00 | 66 | 1017.1 |
| 20260905111606 | 18 | 236 | 16.1 | 32.2 | 0.00 | 1.40 | 0.00 | 66 | 1017.0 |
| 20260905111056 | 18 | 280 | 16.1 | 32.2 | 0.00 | 1.40 | 0.00 | 67 | 1017.2 |
| 20260905110557 | 18 | 281 | 17.7 | 41.8 | 0.00 | 1.40 | 0.00 | 67 | 1017.1 |
| 20260905110104 | 18 | 301 | 17.7 | 41.8 | 0.00 | 1.40 | 0.00 | 66 | 1017.0 |
| 20260905105556 | 18 | 239 | 14.5 | 38.6 | 0.00 | 1.40 | 0.00 | 67 | 1017.0 |
| 20260905105058 | 18 | 298 | 16.1 | 37.0 | 0.00 | 1.40 | 0.00 | 67 | 1017.1 |
| 20260905104604 | 18 | 240 | 16.1 | 37.0 | 0.00 | 1.40 | 0.00 | 66 | 1017.1 |
| 20260905104057 | 18 | 263 | 19.3 | 37.0 | 0.00 | 1.40 | 0.00 | 66 | 1017.2 |
| 20260905103558 | 18 | 242 | 22.5 | 33.8 | 0.00 | 1.40 | 0.00 | 66 | 1017.1 |